Location: Hawks Ness
(60.2333°N, 1.1667°W)
Time: 17:46:29
(UTC+00:00)

CZ-4B R/B - Pass Details

Date: 22 October 2019
Orbit: 497 x 647 km, 97.7° (Epoch: 14 November)

Event Time Altitude Azimuth Distance (km) Brightness Sun altitude
Rises 05:37:06 0° 14° (NNE) 2,697 7.5 -11.0°
Reaches altitude 10° 05:39:12 10° 10° (N) 1,823 6.6 -10.7°
Maximum altitude 05:43:03 55° 293° (WNW) 682 3.9 -10.3°
Drops below altitude 10° 05:47:03 10° 216° (SW) 1,898 6.3 -9.8°
Sets 05:49:17 0° 212° (SSW) 2,820 7.2 -9.5°
